Regional Weather Roundup
Issued by NWS

Home | Current Version | Previous Version | Text Only | Print | Product List | Glossary Off
Versions: 1 2 3 4 5 6 7 8 9 10 11 12 13 14 15 16 17 18 19 20 21 22 23 24 25 26 27 28 29 30 31 32 33 34 35 36 37 38 39 40 41 42 43 44 45 46 47 48 49 50

000
ASUS43 KMKX 290121
RWRWI

WISCONSIN REGIONAL WEATHER ROUNDUP
NATIONAL WEATHER SERVICE MILWAUKEE/SULLIVAN WI
800 PM CDT FRI APR 28 2017

NOTE: "FAIR" INDICATES FEW OR NO CLOUDS BELOW 12,000 FEET WITH NO
SIGNIFICANT WEATHER AND/OR OBSTRUCTIONS TO VISIBILITY.

WIZ001-002-006>008-014>016-023>028-290200-
NORTHWEST WISCONSIN

CITY           SKY/WX    TMP DP  RH WIND       PRES   REMARKS
SUPERIOR ARPT  CLOUDY    46  26  47 N10       30.02R
ASHLAND        CLOUDY    39  30  70 NE12      30.02R WCI  32
HAYWARD        CLOUDY    43  27  53 N3        29.98R
SIREN          CLOUDY    47  24  40 CALM      30.00R
CUMBERLAND     PTCLDY    43  28  56 CALM      30.00R
RICE LAKE      PTCLDY    46  29  52 CALM      30.01R
CHETEK         PTCLDY    44  31  60 CALM      30.00R
LADYSMITH      PTCLDY    45  30  55 CALM      30.00R
EAU CLAIRE     CLOUDY    46  29  51 N6        29.99R
MENOMONIE      CLOUDY    45  31  56 NW7       30.00R
NEW RICHMOND   CLOUDY    45  29  53 CALM      30.01R
OSCEOLA        PTCLDY    47  30  50 CALM      30.04R
$$

WIZ003>005-009-010-017-018-290200-
NORTH CENTRAL WISCONSIN

CITY           SKY/WX    TMP DP  RH WIND       PRES   REMARKS
MANITOWISH WTR PTCLDY    38  28  67 NW5       29.97R WCI  34
ARBOR VITAE    CLOUDY    39  30  69 CALM      29.97R
WOODRUFF       CLOUDY    39  30  69 CALM      29.97R
RHINELANDER    CLOUDY    40  28  62 W3        29.98R
EAGLE RIVER    CLOUDY    37  26  65 W3        29.97R
LAND O LAKES   MOCLDY    37  28  71 CALM      29.98R
PHILLIPS       PTCLDY    40  30  67 CALM      29.98R
TOMAHAWK       PTCLDY    39  28  64 CALM      30.00R
MEDFORD        PTCLDY    41  28  61 N6        29.98R
MERRILL        PTCLDY    41  30  64 N6        29.98R
$$

WIZ029-030-035-036-043>047-290200-
CENTRAL WISCONSIN

CITY           SKY/WX    TMP DP  RH WIND       PRES   REMARKS
WAUSAU         PTCLDY    45  30  55 N6        29.97R
MOSINEE        MOCLDY    43  32  65 NW5       29.98R
MARSHFIELD     CLOUDY    44  32  62 CALM      29.97R
STEVENS POINT  CLOUDY    43  31  62 N3        29.98R
WAUPACA        CLOUDY    48  33  55 CALM      29.98R
WAUTOMA        NOT AVBL
WISC RAPIDS    CLOUDY    46  32  58 N5        29.99R
CAMP DOUGLAS   CLOUDY    46  34  64 NW3       29.98R
$$

WIZ011>013-019>022-031-037>040-048>050-290200-
NORTHEAST WISCONSIN

CITY           SKY/WX    TMP DP  RH WIND       PRES   REMARKS
ANTIGO         PTCLDY    40  30  68 NW5       29.98R
SHAWANO        CLOUDY    48  32  53 NW3       29.98R
OCONTO         NOT AVBL
STURGEON BAY   CLOUDY    42  36  79 S3        29.97R
GREEN BAY      MOCLDY    50  35  56 NW7       29.98R
MANITOWOC      CLOUDY    41  38  89 SW5       29.99R
APPLETON       MOCLDY    46  30  53 NW6       29.96R
CLINTONVILLE   CLOUDY    46  32  57 W5        29.98R
OSHKOSH        LGT RAIN  47  39  74 NW6       29.97R
$$

WIZ032>034-041-042-053>061-290200-
SOUTHWEST WISCONSIN

CITY           SKY/WX    TMP DP  RH WIND       PRES   REMARKS
LA CROSSE      CLOUDY    48  31  51 NE7       30.00R
SPARTA         CLOUDY    45  35  67 CALM      30.00R
VIROQUA        CLOUDY    42  38  85 CALM      29.96R
BOSCOBEL       CLOUDY    46  41  82 NE5       29.98R
PRAIRIE DU CHI DRIZZLE   45  38  76 CALM      29.96S
PLATTEVILLE    CLOUDY    45  43  95 N12       29.96R
$$

WIZ056-057-062-063-064-067-068-290200-
SOUTH CENTRAL WISCONSIN

CITY           SKY/WX    TMP DP  RH WIND       PRES   REMARKS
REEDSBURG      CLOUDY    44  40  85 NE5       29.97R
BARABOO/DELLS  CLOUDY    44  38  79 N6        29.97R
LONE ROCK      LGT RAIN  47  41  80 CALM      29.97R
MINERAL POINT  CLOUDY    45  43  93 N6        29.96R
MADISON        LGT RAIN  44  41  89 N6        29.97R
MIDDLETON      CLOUDY    46  42  84 NE7       29.97R
WATERTOWN      LGT RAIN  46  45  98 CALM      29.96R
MONROE         DRIZZLE   43  43 100 N9        29.93S
JANESVILLE     LGT RAIN  46  46 100 N6        29.94R FOG
$$

WIZ051-052-058>065-066-070>072-290200-
SOUTHEAST WISCONSIN

CITY           SKY/WX    TMP DP  RH WIND       PRES   REMARKS
MILWAUKEE      LGT RAIN  44  40  85 N6        29.93R
WAUKESHA       LGT RAIN  45  39  81 NE5       29.95R
MILWAUKEE/TIMM CLOUDY    45  37  76 CALM      29.95R
RACINE         CLOUDY    44  39  82 N7        29.94R
KENOSHA        CLOUDY    48  41  76 N5        29.92R
FOND DU LAC    LGT RAIN  47  40  76 CALM      29.97R
SHEBOYGAN      LGT RAIN  44  41  89 CALM      29.98R
WEST BEND      LGT RAIN  45  43  93 N5        29.97R
JUNEAU         LGT RAIN  45  42  90 CALM      29.97R
$$

LSZ147-162-290200-
LAKE SUPERIOR

STATION/POSITION TIME  TEMP    WIND        PRES    WAVE
                       AIR SEA DIR/SP/G            HT/PER
                 (UTC) (F)     (DEG/KT/KT) (MB)    (FT/S)
DEVILS ISLAND    0100   38      10/ 13/ 15 1017.6R
PORT WING        0040   41      40/ 11/ 13 1016.3R
SAXON HARBOR     0030   39      80/  9/ 12 1016.3R
$$

LMZ867-665-643>646-290200-
LAKE MICHIGAN

STATION/POSITION TIME  TEMP    WIND        PRES    WAVE
                       AIR SEA DIR/SP/G            HT/PER
                 (UTC) (F)     (DEG/KT/KT) (MB)    (FT/S)
CHAMBERS ISLAND  0040   43     330/ 10/ 12 1014.2R
N MID LAKE BUOY  0050   38 37  170/  2/  2 1016.3R   2/ 4
NORTHPORT PIER   0100   40      CALM  / 20 1015.2
SISTER BAY       0006   41     150/  6/  7   N/A
KEWAUNEE LAKESHO 0054   42     180/  5/  7 1014.4R
SHEBOYGAN LAKESH 0100   40     130/  2/  2 1015.8R
PORT WASHINGTON  0030   41      40/  5/  6 1015.2R
MILWAUKEE LAKESH 0100   43     350/  9/ 10   N/A
S MID LAKE BUOY  0050   42 42   30/  8/ 10 1013.5R   0
KENOSHA   LAKESH 0100   45      20/  8/ 11 1013.5
$$

TC  - TEMPERATURE IN CELSIUS
VSB - VISIBILITY IN STATUTE MILES
WCI - WIND CHILL INDEX
HX  - HEAT INDEX





USA.gov is the U.S. government's official web portal to all federal, state and local government web resources and services.